[[{"header":{"parameterUnit":"m.s-1","parameterCategory":1,"la1":30.2991,"la2":30.254,"lo1":-89.0895,"lo2":-89.0444,"dy":0.0017,"dx":0.0017,"nx":28,"ny":28,"refTime":"2023-08-26T03:00:00:Z","depth":0,"parameterNumber":2,"parameterNumberName":"U-component_of_WINDS"},"data":[0,0,0,0,0,0,0,0,0,0,0,0,0,0,0,0,0,0,0,0,0,0,0,0,0,0,0,0,0,0,0,0,0,0,0,0,0,0,0,0,0,0,0,0,0,0,0,0,0,0,0,0,0,0,0,0,0,0,3.1511,3.1511,0,3.1579,3.158,3.1581,3.1536,3.1534,3.1532,3.153,3.1599,3.1603,3.1607,0,0,0,0,0,0,0,0,0,0,0,0,0,3.134,3.1343,3.151,3.1511,3.1512,3.1579,3.158,3.1581,3.1536,3.1534,3.1531,3.1529,3.1598,3.1602,3.1607,0,0,0,0,0,0,0,0,0,0,0,0,0,3.1412,3.1344,3.151,3.1498,3.1497,3.1579,3.158,3.1581,3.1537,3.1533,3.153,3.1527,3.1596,3.1602,3.1608,3.1705,0,0,3.1625,3.1627,0,0,0,0,0,0,0,0,3.1408,3.1418,3.1499,3.1499,3.1499,3.1546,3.1545,3.1623,3.1537,3.1522,3.153,3.1526,3.1584,3.159,3.161,3.1708,3.1711,3.1625,3.1629,3.1631,3.1633,0,0,0,0,0,0,0,3.1403,3.1415,3.1538,3.15,3.15,3.1489,3.1496,3.156,3.1569,3.1523,3.152,3.1529,3.1583,3.1605,3.1611,3.1712,3.1625,3.163,3.1634,3.1636,3.1896,3.1899,0,0,0,0,0,0,3.1399,3.1411,3.1535,3.154,3.1445,3.1494,3.1502,3.1534,3.1569,3.1571,3.1531,3.1526,3.1597,3.1605,3.1614,3.1731,3.1631,3.1637,3.164,3.1892,3.1896,3.19,0,0,0,0,0,0,3.1396,3.1411,3.1533,3.1475,3.1489,3.1501,3.1537,3.1537,3.1558,3.1575,3.1576,3.1552,3.1594,3.1606,3.1683,3.1733,3.1639,3.1644,3.1888,3.1893,3.1898,3.1966,0,0,0,0,0,0,3.1391,3.141,3.1447,3.1476,3.1493,3.1601,3.154,3.154,3.1568,3.1563,3.1594,3.1597,3.1593,3.1675,3.1689,3.1739,3.1649,3.1884,3.189,3.1897,3.196,3.1973,3.1985,0,0,0,0,0,3.1385,3.1463,3.1449,3.1464,3.1539,3.1604,3.1614,3.1608,3.1573,3.161,3.1621,3.1596,3.1725,3.1683,3.1698,3.1751,3.188,3.1888,3.1896,3.1954,3.197,3.1984,0,0,0,0,0,0,3.1438,3.1466,3.1451,3.1541,3.1571,3.1596,3.1643,3.1626,3.1666,3.1659,3.165,3.1657,3.1739,3.1752,3.1705,3.1848,3.1797,3.1808,3.1836,3.1852,3.1864,3.1859,3.1653,0,0,0,0,0,3.146,3.1511,3.1532,3.1609,3.1625,3.1632,3.166,3.1653,3.1684,3.1696,3.1712,3.1743,3.179,3.1822,3.1866,3.1962,3.1968,3.2005,3.2018,3.2028,3.2038,3.2091,3.2108,3.1926,3.1926,3.1926,0,0,3.1507,3.1528,3.156,3.1621,3.1643,3.1696,3.1643,3.17,3.1739,3.1704,3.1779,3.1792,3.1826,3.1913,3.1952,3.1927,3.209,3.2038,3.2046,3.2051,3.21,3.2118,3.2133,3.1931,3.193,3.1929,0,0,3.1618,3.1639,3.1706,3.173,3.1765,3.1769,3.1785,3.1815,3.1822,3.1897,3.1872,3.1919,3.2,3.2026,3.2049,3.2172,3.2151,3.2187,3.2252,3.2304,3.2318,3.2331,3.2375,3.2391,3.2197,3.2197,3.2197,0,3.1671,3.175,3.1743,3.1803,3.183,3.1802,3.187,3.1893,3.1941,3.1961,3.1932,3.2035,3.2056,3.2149,3.2179,3.2199,3.2217,3.2183,3.2317,3.2329,3.2341,3.2383,3.24,3.2201,3.2201,3.22,3.22,0,3.1814,3.1868,3.1918,3.1966,3.1999,3.2063,3.2066,3.21,3.2091,3.2098,3.2176,3.2199,3.2249,3.227,3.2261,3.2363,3.2346,3.2318,3.2266,3.2363,3.2402,3.2419,3.2207,3.2206,3.2204,3.2203,0,0,3.196,3.2004,3.2022,3.2044,3.2081,3.2123,3.2186,3.2235,3.2265,3.2299,3.2352,3.2423,3.2397,3.2424,3.2418,3.2463,3.256,3.2429,3.2429,3.2453,3.2674,3.2696,3.2715,3.2546,3.2549,3.2552,3.2672,0,3.2074,3.2184,3.218,3.2282,3.2334,3.2308,3.2363,3.2392,3.2401,3.2446,3.2455,3.2506,3.2467,3.2484,3.2527,3.2539,3.2604,3.253,3.2595,3.2598,3.2588,3.2735,3.2758,3.2871,3.2687,3.269,3.2692,0,3.2221,3.2261,3.2369,3.24,3.2421,3.2471,3.2516,3.2559,3.2592,3.2595,3.2626,3.2613,3.2677,3.2625,3.2713,3.2663,3.269,3.27,3.2704,3.271,3.2651,3.2746,3.2906,3.2923,3.2716,3.2714,3.2712,0,3.2318,3.2399,3.2474,3.2494,3.2531,3.2567,3.2584,3.2613,3.2643,3.2683,3.2703,3.2749,3.2775,3.2811,3.2812,3.2773,3.2902,3.2849,3.2907,3.2907,3.2935,3.2933,3.3102,3.2952,3.2952,3.2951,3.2951,0,3.2446,3.2513,3.2518,3.2565,3.264,3.2635,3.2709,3.2723,3.275,3.2798,3.2779,3.2825,3.2823,3.287,3.287,3.2944,3.2956,3.2961,3.296,3.2963,3.2962,3.298,3.2972,3.2956,3.2955,3.2954,3.2953,0,3.2567,3.2573,3.2654,3.2683,3.2692,3.2746,3.2771,3.2815,3.2823,3.2885,3.2899,3.2911,3.2966,3.297,3.3033,3.3033,3.3123,3.3114,3.3112,3.3111,3.3169,3.3164,3.3355,3.3381,3.3213,3.3215,3.3216,0,3.2648,3.27,3.2735,3.2766,3.2786,3.2837,3.2868,3.2866,3.2899,3.294,3.298,3.3033,3.3075,3.3163,3.3178,3.3226,3.3218,3.3282,3.3225,3.3226,3.322,3.3217,3.3222,3.3293,3.3295,3.3296,3.3297,0,3.2793,3.2794,3.2839,3.2887,3.2924,3.2961,3.2996,3.3023,3.3024,3.3063,3.3119,3.3151,3.3216,3.3269,3.3317,3.3334,3.3317,3.3315,3.3331,3.3335,3.3332,3.3335,3.3143,3.3311,3.331,3.3309,3.3308,3.3307,3.2897,3.2942,3.2974,3.3026,3.3052,3.3085,3.3128,3.3142,3.3188,3.3241,3.3237,3.3299,3.3331,3.3393,3.3415,3.3464,3.3442,3.3465,3.3471,3.3477,3.3483,3.3324,3.3472,3.3472,3.3471,3.3471,3.3471,0,3.3041,3.3061,3.3108,3.3158,3.3199,3.3179,3.3216,3.3252,3.3307,3.3339,3.3381,3.3446,3.3497,3.3516,3.3567,3.3602,3.3595,3.3615,3.3613,3.3618,3.3499,3.3481,3.362,3.362,3.362,3.362,3.362,3.362,3.3121,3.3196,3.3201,3.3289,3.3308,3.3369,3.3392,3.3423,3.3448,3.3521,3.3564,3.3576,3.3603,3.3656,3.3703,3.3707,3.3727,3.375,3.3751,3.3641,3.3626,3.3611,3.3594,3.3755,3.3755,3.3865,3.3866,3.3867]},{"header":{"parameterUnit":"m.s-1","parameterCategory":1,"la1":30.2991,"la2":30.254,"lo1":-89.0895,"lo2":-89.0444,"dy":0.0017,"dx":0.0017,"nx":28,"ny":28,"refTime":"2023-08-26T03:00:00:Z","depth":0,"parameterNumber":3,"parameterNumberName":"V-component_of_WINDS"},"data":[0,0,0,0,0,0,0,0,0,0,0,0,0,0,0,0,0,0,0,0,0,0,0,0,0,0,0,0,0,0,0,0,0,0,0,0,0,0,0,0,0,0,0,0,0,0,0,0,0,0,0,0,0,0,0,0,0,0,-2.0224,-2.0225,0,-2.032,-2.0321,-2.0322,-2.0328,-2.0327,-2.0326,-2.0325,-2.0423,-2.0427,-2.043,0,0,0,0,0,0,0,0,0,0,0,0,0,-2.0048,-2.0051,-2.0224,-2.0225,-2.0226,-2.0319,-2.0321,-2.0322,-2.0328,-2.0327,-2.0325,-2.0324,-2.0422,-2.0426,-2.0431,0,0,0,0,0,0,0,0,0,0,0,0,0,-2.0132,-2.0052,-2.0224,-2.024,-2.0243,-2.0319,-2.0321,-2.0322,-2.0328,-2.0327,-2.0325,-2.0323,-2.0421,-2.0426,-2.0431,-2.0497,0,0,-2.0448,-2.045,0,0,0,0,0,0,0,0,-2.0127,-2.0138,-2.0237,-2.0239,-2.0242,-2.031,-2.0295,-2.0381,-2.0329,-2.0296,-2.0325,-2.0323,-2.0387,-2.0395,-2.0417,-2.0502,-2.0506,-2.0448,-2.0452,-2.0454,-2.0456,0,0,0,0,0,0,0,-2.0121,-2.0134,-2.0262,-2.0238,-2.0242,-2.0244,-2.0254,-2.0311,-2.0349,-2.0299,-2.0299,-2.031,-2.0388,-2.0411,-2.0419,-2.0508,-2.0448,-2.0453,-2.0457,-2.0459,-2.0654,-2.0655,0,0,0,0,0,0,-2.0112,-2.0129,-2.0259,-2.0265,-2.0179,-2.0248,-2.0259,-2.029,-2.0349,-2.0356,-2.0312,-2.031,-2.0403,-2.0413,-2.0422,-2.0505,-2.0454,-2.0459,-2.0462,-2.0652,-2.0654,-2.0656,0,0,0,0,0,0,-2.0108,-2.0123,-2.0255,-2.0197,-2.0214,-2.0253,-2.0287,-2.0293,-2.0316,-2.0359,-2.0366,-2.0328,-2.0402,-2.0415,-2.0479,-2.0508,-2.0462,-2.0467,-2.065,-2.0652,-2.0655,-2.0669,0,0,0,0,0,0,-2.0103,-2.0122,-2.0147,-2.0198,-2.0217,-2.0309,-2.0289,-2.0296,-2.0325,-2.0324,-2.0376,-2.0383,-2.0402,-2.0471,-2.0484,-2.0515,-2.0471,-2.0647,-2.0651,-2.0654,-2.0666,-2.0672,-2.0677,0,0,0,0,0,-2.0097,-2.0147,-2.0148,-2.0164,-2.0249,-2.0311,-2.0322,-2.0342,-2.0327,-2.0353,-2.0381,-2.0381,-2.0503,-2.0477,-2.0493,-2.0525,-2.0645,-2.065,-2.0654,-2.0663,-2.067,-2.0676,0,0,0,0,0,0,-2.0099,-2.0154,-2.0156,-2.0224,-2.0263,-2.0312,-2.0345,-2.0349,-2.0393,-2.039,-2.0413,-2.0425,-2.0489,-2.0513,-2.0484,-2.0593,-2.0572,-2.058,-2.0574,-2.0581,-2.0587,-2.058,-2.0475,0,0,0,0,0,-2.0107,-2.0152,-2.0198,-2.0254,-2.0273,-2.0306,-2.0333,-2.0346,-2.0387,-2.0403,-2.0436,-2.0476,-2.0523,-2.0554,-2.0599,-2.0669,-2.0681,-2.0699,-2.0705,-2.0709,-2.0715,-2.0755,-2.0764,-2.067,-2.067,-2.067,0,0,-2.0125,-2.0161,-2.0188,-2.0255,-2.0287,-2.0333,-2.0319,-2.0369,-2.0404,-2.0411,-2.0474,-2.0499,-2.0545,-2.0613,-2.0644,-2.0635,-2.0744,-2.0714,-2.0717,-2.0722,-2.0761,-2.0769,-2.0777,-2.0673,-2.0673,-2.0672,0,0,-2.0181,-2.0213,-2.0263,-2.0295,-2.0343,-2.0364,-2.0376,-2.0425,-2.0442,-2.0505,-2.0512,-2.0554,-2.0634,-2.0668,-2.0695,-2.0765,-2.0768,-2.078,-2.0808,-2.0847,-2.0854,-2.0861,-2.0886,-2.0895,-2.0786,-2.0786,-2.0786,0,-2.0197,-2.0268,-2.0288,-2.0338,-2.0368,-2.0376,-2.0428,-2.0458,-2.0518,-2.0539,-2.0528,-2.063,-2.0662,-2.0738,-2.0755,-2.0777,-2.0792,-2.0774,-2.0851,-2.0858,-2.0865,-2.0889,-2.0899,-2.0787,-2.0787,-2.0787,-2.0787,0,-2.0286,-2.0334,-2.0369,-2.0427,-2.0461,-2.0512,-2.054,-2.0572,-2.0582,-2.0605,-2.067,-2.0708,-2.0763,-2.0782,-2.0791,-2.086,-2.0853,-2.0846,-2.0826,-2.0874,-2.0898,-2.0908,-2.0789,-2.0788,-2.0788,-2.0788,0,0,-2.0345,-2.0415,-2.0427,-2.0454,-2.0508,-2.0546,-2.0598,-2.0651,-2.0678,-2.072,-2.0764,-2.0832,-2.0827,-2.0858,-2.0872,-2.0906,-2.096,-2.0896,-2.0897,-2.0907,-2.1039,-2.1043,-2.1054,-2.0962,-2.0964,-2.0965,-2.1035,0,-2.0408,-2.0499,-2.0519,-2.0598,-2.0644,-2.0653,-2.0698,-2.0736,-2.0759,-2.0802,-2.0827,-2.0876,-2.0865,-2.0884,-2.0918,-2.0946,-2.0987,-2.0942,-2.1004,-2.1006,-2.0992,-2.1066,-2.1071,-2.1135,-2.1044,-2.1046,-2.1047,0,-2.0493,-2.0537,-2.062,-2.0669,-2.0689,-2.0729,-2.0779,-2.082,-2.0864,-2.0878,-2.0914,-2.0924,-2.0979,-2.0956,-2.1032,-2.1001,-2.1028,-2.1046,-2.1049,-2.1056,-2.103,-2.1076,-2.1156,-2.1166,-2.1062,-2.1061,-2.106,0,-2.0529,-2.0609,-2.0669,-2.0692,-2.075,-2.0778,-2.0804,-2.0846,-2.0877,-2.0921,-2.0942,-2.0992,-2.102,-2.1059,-2.1083,-2.1065,-2.1158,-2.1137,-2.1172,-2.1172,-2.1191,-2.119,-2.1278,-2.1208,-2.1208,-2.1208,-2.1208,0,-2.0597,-2.0648,-2.0686,-2.0723,-2.0781,-2.0804,-2.0861,-2.0886,-2.0924,-2.0967,-2.0978,-2.1018,-2.1047,-2.1092,-2.1111,-2.1172,-2.1184,-2.1198,-2.1202,-2.1197,-2.1195,-2.1215,-2.1211,-2.121,-2.121,-2.1209,-2.1209,0,-2.0647,-2.0675,-2.0741,-2.0791,-2.0805,-2.0845,-2.0888,-2.0925,-2.0948,-2.1002,-2.1017,-2.1054,-2.1107,-2.1135,-2.1201,-2.1214,-2.1282,-2.1284,-2.1267,-2.1269,-2.1303,-2.13,-2.1407,-2.1423,-2.1342,-2.1343,-2.1343,0,-2.0689,-2.0728,-2.0782,-2.0812,-2.0838,-2.0885,-2.0917,-2.0941,-2.0974,-2.1028,-2.1058,-2.1112,-2.1156,-2.1241,-2.1274,-2.1325,-2.1329,-2.1363,-2.1336,-2.133,-2.133,-2.1328,-2.1332,-2.1367,-2.1368,-2.1369,-2.1369,0,-2.076,-2.0772,-2.0817,-2.0868,-2.0905,-2.0946,-2.0986,-2.101,-2.1041,-2.1078,-2.1132,-2.1166,-2.1234,-2.1288,-2.1341,-2.1369,-2.1375,-2.1377,-2.1388,-2.1383,-2.1372,-2.138,-2.1281,-2.1375,-2.1374,-2.1374,-2.1373,-2.1373,-2.0808,-2.0844,-2.0888,-2.0938,-2.0971,-2.1008,-2.1046,-2.1074,-2.112,-2.1177,-2.1189,-2.1246,-2.1291,-2.1363,-2.1392,-2.1438,-2.1431,-2.1447,-2.1451,-2.1455,-2.1457,-2.1365,-2.1448,-2.1448,-2.1448,-2.1448,-2.1448,0,-2.0881,-2.091,-2.0955,-2.1012,-2.1051,-2.1053,-2.1098,-2.1131,-2.1182,-2.1222,-2.1266,-2.1329,-2.1381,-2.1419,-2.1472,-2.1502,-2.1506,-2.1515,-2.1513,-2.152,-2.1459,-2.1445,-2.1511,-2.1511,-2.1511,-2.1511,-2.1511,-2.1511,-2.0923,-2.0984,-2.1001,-2.1079,-2.1107,-2.1164,-2.1189,-2.1225,-2.1257,-2.1327,-2.137,-2.1394,-2.1434,-2.1491,-2.1539,-2.1549,-2.1568,-2.1577,-2.1588,-2.1531,-2.1524,-2.1517,-2.1504,-2.1581,-2.1581,-2.1644,-2.1645,-2.1645]}]]